Jerez de la Frontera, Spain

1:16 PM CEST on September 25, 2017 (GMT +0200)
Jerez

Weather History for LEJR - March, 2012

Change the Weather History Date:

Wednesday, March 14, 2012

  Actual Average Record
Temperature  
Mean Temperature 61 °F -  
Max Temperature 82 °F 68 °F 80 °F (2008)
Min Temperature 40 °F 47 °F 35 °F (1998)
Degree Days  
Heating Degree Days 4    
Growing Degree Days 11 (Base 50)    
Moisture  
Dew Point 30 °F    
Average Humidity 31    
Maximum Humidity 61    
Minimum Humidity 13    
Precipitation  
Precipitation 0.00 in 0.07 in - ()
Sea Level Pressure  
Sea Level Pressure 30.18 in    
Wind  
Wind Speed 4 mph ()    
Max Wind Speed 15 mph    
Max Gust Speed 17 mph    
Visibility 19.0 miles    
Events      
Averages and records for this station are not official NWS values.
T = Trace of Precipitation, MM = Missing Value Source: Averaged Metar Reports

Daily Weather History Graph

Daily Weather History Graph

Search for Another Location

Airport or City:

Trip Planner

Search our weather history database for the weather conditions in past years. The results will help you decide how hot, cold, wet, or windy it might be!

Date:

Astronomy

Mar. 14, 2012 Rise Set
Actual Time 7:36 AM CET 7:31 PM CET
Civil Twilight 7:10 AM CET 7:56 PM CET
Nautical Twilight 6:40 AM CET 8:26 PM CET
Astronomical Twilight 6:10 AM CET 8:57 PM CET
Moon 1:41 AM CET (3/14) 11:43 AM CET (3/14)
Length of Visible Light 12h 46m
Length of Day
11h 54m
Waning Gibbous, 57% of the Moon is Illuminated
Mar 14
Waning Gibbous
Mar 15
Last Quarter
Mar 22
New
Mar 30
First Quarter
Apr 6
Full

Hourly Weather History & Observations

Time (CET) Temp. Dew Point Humidity Pressure Visibility Wind Dir Wind Speed Gust Speed Precip Events Conditions
1:00 AM 52 °F 32 °F 34% 30.17 in 19 mi East 2.3 mph - -  
5:00 AM 44.6 °F 28.4 °F 53% 30.15 in - Variable 1.2 mph - N/A   Clear
5:30 AM 42.8 °F 28.4 °F 57% 30.15 in - Variable 1.2 mph - N/A   Clear
6:00 AM 44.6 °F 28.4 °F 53% 30.15 in - Calm Calm - N/A   Clear
6:30 AM 44.6 °F 28.4 °F 53% 30.15 in - Calm Calm - N/A   Clear
7:00 AM 42 °F 31 °F 54% 30.18 in 28 mi Calm Calm - -  
7:00 AM 42.8 °F 30.2 °F 61% 30.15 in - Calm Calm - N/A   Clear
7:30 AM 41.0 °F 28.4 °F 61% 30.18 in - Calm Calm - N/A   Clear
8:00 AM 41.0 °F 26.6 °F 57% 30.18 in - Variable 1.2 mph - N/A   Clear
8:30 AM 44.6 °F 26.6 °F 49% 30.18 in - Variable 2.3 mph - N/A   Clear
9:00 AM 50.0 °F 30.2 °F 47% 30.18 in - Variable 1.2 mph - N/A   Clear
9:30 AM 55.4 °F 32.0 °F 41% 30.21 in - Variable 1.2 mph - N/A   Clear
10:00 AM 60.8 °F 33.8 °F 36% 30.21 in - Calm Calm - N/A   Clear
10:30 AM 64.4 °F 35.6 °F 34% 30.21 in - Calm Calm - N/A   Clear
11:00 AM 66.2 °F 33.8 °F 30% 30.21 in - Calm Calm - N/A   Clear
11:30 AM 68.0 °F 33.8 °F 28% 30.21 in - Variable 1.2 mph - N/A   Clear
12:00 PM 69.8 °F 32.0 °F 25% 30.21 in - ENE 3.5 mph - N/A   Clear
12:30 PM 73.4 °F 35.6 °F 25% 30.21 in - ENE 3.5 mph - N/A   Clear
1:00 PM 79 °F 37 °F 13% 30.21 in 31 mi ENE 2.3 mph - -   Clear
1:00 PM 77.0 °F 32.0 °F 19% 30.21 in - Variable 2.3 mph - N/A   Clear
1:30 PM 78.8 °F 30.2 °F 17% 30.18 in - Variable 1.2 mph - N/A   Clear
2:00 PM 80.6 °F 26.6 °F 14% 30.18 in - Variable 4.6 mph 17.3 mph N/A   Clear
2:30 PM 80.6 °F 28.4 °F 15% 30.15 in - South 10.4 mph - N/A   Clear
3:00 PM 80.6 °F 28.4 °F 15% 30.15 in - South 12.7 mph - N/A   Clear
3:30 PM 80.6 °F 30.2 °F 16% 30.15 in - South 11.5 mph - N/A   Clear
4:00 PM 80.6 °F 30.2 °F 16% 30.15 in - South 12.7 mph - N/A   Clear
4:30 PM 78.8 °F 30.2 °F 17% 30.15 in - South 12.7 mph - N/A   Clear
5:00 PM 77.0 °F 30.2 °F 18% 30.15 in - SSE 15.0 mph - N/A   Clear
5:30 PM 77.0 °F 30.2 °F 18% 30.15 in - SSE 13.8 mph - N/A   Clear
6:00 PM 75.2 °F 30.2 °F 19% 30.15 in - SSE 13.8 mph - N/A   Clear
6:30 PM 73.4 °F 30.2 °F 20% 30.15 in - SSE 12.7 mph - N/A   Clear
7:00 PM 71 °F 35 °F 16% 30.17 in 37 mi SSE 13.8 mph - -   Clear
7:00 PM 69.8 °F 28.4 °F 21% 30.15 in - SSE 13.8 mph - N/A   Clear
7:30 PM 68.0 °F 28.4 °F 23% 30.18 in - SSE 11.5 mph - N/A   Clear
8:00 PM 66.2 °F 28.4 °F 24% 30.18 in - SSE 8.1 mph - N/A   Clear
8:30 PM 64.4 °F 26.6 °F 24% 30.18 in - SSE 8.1 mph - N/A   Clear
9:00 PM 62.6 °F 28.4 °F 27% 30.18 in - ESE 3.5 mph - N/A   Clear
9:30 PM 59.0 °F 28.4 °F 31% 30.18 in - Variable 2.3 mph - N/A   Clear
10:00 PM 57.2 °F 28.4 °F 33% 30.18 in - NNW 3.5 mph - N/A   Clear
10:30 PM 55.4 °F 28.4 °F 36% 30.21 in - NNW 4.6 mph - N/A   Clear
11:00 PM 55.4 °F 28.4 °F 36% 30.21 in - NW 3.5 mph - N/A   Clear